Weather History for Chipley, FL

Change the Weather History Date:

Sunday, August 25, 2013

  Actual Average (KMAI) Record (KMAI)
Temperature  
Mean Temperature 78 °F 81 °F  
Max Temperature 82 °F 91 °F 100 °F (2011)
Min Temperature 75 °F 72 °F 66 °F (1997)
Degree Days  
Heating Degree Days 0    
Month to date heating degree days  
Since 1 June heating degree days  
Since 1 July heating degree days  
Cooling Degree Days 14    
Month to date cooling degree days  
Year to date cooling degree days  
Since 1 June cooling degree days  
Growing Degree Days 28 (Base 50)    
Moisture  
Dew Point 71 °F    
Average Humidity 79    
Maximum Humidity 89    
Minimum Humidity 66    
Precipitation  
Precipitation 0.46 in 0.14 in 0.34 in (2006)
Month to date precipitation 4.65  
Year to date precipitation 37.55  
Sea Level Pressure  
Sea Level Pressure 30.13 in    
Wind  
Wind Speed 5 mph (ESE)    
Max Wind Speed 10 mph    
Max Gust Speed 17 mph    
Visibility 10 miles    
Events      
T = Trace of Precipitation, MM = Missing Value Source: NWS Daily Summary

Daily Weather History Graph

Daily Weather History Graph

Search for Another Location

Airport:

Trip Planner

Search our weather history database for the weather conditions in past years. The results will help you decide how hot, cold, wet, or windy it might be!

Date:

Astronomy

Aug. 25, 2013 Rise Set
Actual Time 6:14 AM CDT 7:13 PM CDT
Civil Twilight 5:49 AM CDT 7:38 PM CDT
Nautical Twilight 5:20 AM CDT 8:07 PM CDT
Astronomical Twilight 4:50 AM CDT 8:37 PM CDT
Moon 10:09 PM CDT (8/25) 10:51 AM CDT (8/25)
Length of Visible Light 13h 48m
Length of Day
12h 58m
Waning Gibbous, 75% of the Moon is Illuminated
Aug 25
Waning Gibbous
Aug 28
Last Quarter
Sep 5
New
Sep 12
First Quarter
Sep 19
Full

Hourly Weather History & Observations

Time (CDT) Temp. Heat Index Dew Point Humidity Pressure Visibility Wind Dir Wind Speed Gust Speed Precip Events Conditions
12:15 AM 78.8 °F - 69.8 °F 74% 30.09 in 10.0 mi East 8.1 mph - N/A   Clear
12:35 AM 78.8 °F - 71.6 °F 78% 30.09 in 10.0 mi East 6.9 mph - N/A   Clear
12:55 AM 78.8 °F - 71.6 °F 78% 30.09 in 10.0 mi East 8.1 mph - N/A   Clear
1:15 AM 78.8 °F - 71.6 °F 78% 30.09 in 10.0 mi SE 3.5 mph - N/A   Clear
1:35 AM 78.8 °F - 71.6 °F 78% 30.09 in 10.0 mi East 4.6 mph - N/A   Clear
1:55 AM 78.8 °F - 71.6 °F 78% 30.08 in 10.0 mi ESE 6.9 mph - N/A   Clear
2:15 AM 78.8 °F - 71.6 °F 78% 30.08 in 10.0 mi ENE 4.6 mph - N/A   Clear
2:35 AM 78.8 °F - 71.6 °F 78% 30.09 in 10.0 mi NE 4.6 mph - N/A   Partly Cloudy
2:55 AM 78.8 °F - 71.6 °F 78% 30.09 in 10.0 mi ENE 3.5 mph - N/A   Mostly Cloudy
3:15 AM 78.8 °F - 71.6 °F 78% 30.08 in 10.0 mi East 6.9 mph - N/A   Mostly Cloudy
3:35 AM 78.8 °F - 71.6 °F 78% 30.08 in 10.0 mi East 8.1 mph - N/A   Mostly Cloudy
3:55 AM 78.8 °F - 71.6 °F 78% 30.08 in 10.0 mi East 4.6 mph - N/A   Mostly Cloudy
4:15 AM 75.2 °F - 69.8 °F 83% 30.08 in 10.0 mi NE 4.6 mph - 0.06 in   Overcast
4:35 AM 75.2 °F - 69.8 °F 83% 30.08 in 9.0 mi ENE 3.5 mph - 0.07 in   Overcast
4:55 AM 75.2 °F - 71.6 °F 89% 30.09 in 10.0 mi NE 4.6 mph - 0.07 in   Overcast
5:15 AM 75.2 °F - 71.6 °F 89% 30.09 in 10.0 mi ENE 4.6 mph - 0.01 in   Mostly Cloudy
5:35 AM 75.2 °F - 71.6 °F 89% 30.09 in 10.0 mi Calm Calm - 0.01 in   Mostly Cloudy
5:55 AM 75.2 °F - 69.8 °F 83% 30.09 in 10.0 mi SSE 3.5 mph - 0.01 in   Mostly Cloudy
6:15 AM 75.2 °F - 69.8 °F 83% 30.09 in 10.0 mi East 5.8 mph - N/A   Partly Cloudy
6:35 AM 75.2 °F - 69.8 °F 83% 30.10 in 10.0 mi East 6.9 mph - N/A   Clear
6:55 AM 75.2 °F - 71.6 °F 89% 30.10 in 10.0 mi East 6.9 mph - N/A   Partly Cloudy
7:15 AM 75.2 °F - 71.6 °F 89% 30.11 in 10.0 mi SE 3.5 mph - N/A   Scattered Clouds
7:35 AM 77.0 °F - 71.6 °F 83% 30.11 in 10.0 mi Calm Calm - N/A   Clear
7:55 AM 77.0 °F - 71.6 °F 83% 30.11 in 10.0 mi Calm Calm - N/A   Partly Cloudy
8:15 AM 77.0 °F - 71.6 °F 83% 30.13 in 10.0 mi Calm Calm - N/A   Mostly Cloudy
8:35 AM 78.8 °F - 71.6 °F 78% 30.14 in 10.0 mi East 6.9 mph - N/A   Mostly Cloudy
8:55 AM 78.8 °F - 71.6 °F 78% 30.15 in 10.0 mi ENE 5.8 mph - N/A   Mostly Cloudy
9:15 AM 78.8 °F - 71.6 °F 78% 30.15 in 10.0 mi East 5.8 mph - N/A   Mostly Cloudy
9:35 AM 80.6 °F 84.6 °F 71.6 °F 74% 30.15 in 10.0 mi Calm Calm - N/A   Mostly Cloudy
9:55 AM 80.6 °F 84.6 °F 71.6 °F 74% 30.15 in 10.0 mi SE 6.9 mph - N/A   Overcast
10:15 AM 80.6 °F 85.4 °F 73.4 °F 79% 30.15 in 9.0 mi SSE 3.5 mph - N/A   Overcast
10:35 AM 80.6 °F 84.6 °F 71.6 °F 74% 30.16 in 10.0 mi SSE 6.9 mph - N/A   Partly Cloudy
10:55 AM 82.4 °F 87.2 °F 71.6 °F 70% 30.16 in 10.0 mi SE 4.6 mph - N/A   Scattered Clouds
11:15 AM 82.4 °F 87.2 °F 71.6 °F 70% 30.17 in 10.0 mi SSE 4.6 mph - N/A   Scattered Clouds
11:35 AM 82.4 °F 86.3 °F 69.8 °F 66% 30.17 in 10.0 mi SSE 10.4 mph 16.1 mph N/A   Mostly Cloudy
11:55 AM 82.4 °F 87.2 °F 71.6 °F 70% 30.17 in 8.0 mi SSE 10.4 mph 17.3 mph 0.03 in   Mostly Cloudy
12:15 PM 77.0 °F - 71.6 °F 83% 30.16 in 5.0 mi SSE 5.8 mph - 0.06 in   Mostly Cloudy
12:35 PM 78.8 °F - 71.6 °F 78% 30.15 in 10.0 mi ENE 3.5 mph - 0.07 in   Mostly Cloudy
12:55 PM 80.6 °F 85.4 °F 73.4 °F 79% 30.15 in 10.0 mi Calm Calm - 0.07 in   Mostly Cloudy
1:15 PM 82.4 °F 87.2 °F 71.6 °F 70% 30.15 in 10.0 mi SE 5.8 mph - N/A   Mostly Cloudy
1:35 PM 82.4 °F 87.2 °F 71.6 °F 70% 30.15 in 10.0 mi SSE 5.8 mph - N/A   Mostly Cloudy
1:55 PM 82.4 °F 87.2 °F 71.6 °F 70% 30.15 in 10.0 mi East 6.9 mph - N/A   Mostly Cloudy
2:15 PM 82.4 °F 87.2 °F 71.6 °F 70% 30.15 in 7.0 mi SE 9.2 mph - 0.08 in   Overcast
2:35 PM 78.8 °F - 71.6 °F 78% 30.15 in 10.0 mi Calm Calm - 0.19 in   Overcast
2:55 PM 80.6 °F 84.6 °F 71.6 °F 74% 30.14 in 10.0 mi SE 4.6 mph - 0.19 in   Overcast
3:15 PM 80.6 °F 84.6 °F 71.6 °F 74% 30.14 in 10.0 mi SSE 6.9 mph - N/A   Mostly Cloudy
3:35 PM 82.4 °F 87.2 °F 71.6 °F 70% 30.14 in 10.0 mi SSE 5.8 mph - N/A   Clear
3:55 PM 82.4 °F 87.2 °F 71.6 °F 70% 30.13 in 10.0 mi SE 4.6 mph - N/A   Scattered Clouds
4:15 PM 82.4 °F 87.2 °F 71.6 °F 70% 30.13 in 10.0 mi SSE 9.2 mph - N/A   Mostly Cloudy
4:35 PM 80.6 °F 83.9 °F 69.8 °F 70% 30.14 in 10.0 mi ESE 4.6 mph - N/A   Scattered Clouds
4:55 PM 78.8 °F - 71.6 °F 78% 30.14 in 5.0 mi SE 4.6 mph - 0.02 in   Overcast
5:15 PM 75.2 °F - 71.6 °F 89% 30.14 in 10.0 mi NE 6.9 mph - 0.07 in   Overcast
5:35 PM 75.2 °F - 71.6 °F 89% 30.14 in 10.0 mi NE 5.8 mph - 0.07 in   Scattered Clouds
5:55 PM 77.0 °F - 71.6 °F 83% 30.13 in 10.0 mi East 5.8 mph - 0.07 in   Partly Cloudy
6:15 PM 78.8 °F - 71.6 °F 78% 30.14 in 10.0 mi NE 5.8 mph - N/A   Scattered Clouds
6:35 PM 78.8 °F - 71.6 °F 78% 30.13 in 10.0 mi ENE 4.6 mph - N/A   Overcast
6:55 PM 78.8 °F - 71.6 °F 78% 30.14 in 10.0 mi East 8.1 mph - N/A   Scattered Clouds
7:15 PM 78.8 °F - 71.6 °F 78% 30.13 in 10.0 mi SE 6.9 mph - N/A   Clear
7:35 PM 78.8 °F - 71.6 °F 78% 30.14 in 10.0 mi East 3.5 mph - N/A   Partly Cloudy
7:55 PM 77.0 °F - 71.6 °F 83% 30.14 in 10.0 mi East 4.6 mph - N/A   Mostly Cloudy
8:15 PM 77.0 °F - 71.6 °F 83% 30.14 in 10.0 mi Calm Calm - N/A   Scattered Clouds
8:35 PM 78.8 °F - 71.6 °F 78% 30.15 in 10.0 mi Calm Calm - N/A   Partly Cloudy
8:55 PM 78.8 °F - 71.6 °F 78% 30.15 in 10.0 mi ENE 6.9 mph - N/A   Partly Cloudy
9:15 PM 78.8 °F - 71.6 °F 78% 30.16 in 10.0 mi ENE 3.5 mph - N/A   Clear
9:35 PM 78.8 °F - 71.6 °F 78% 30.16 in 10.0 mi SE 4.6 mph - N/A   Mostly Cloudy
9:55 PM 77.0 °F - 71.6 °F 83% 30.17 in 10.0 mi SE 5.8 mph - N/A   Scattered Clouds
10:15 PM 78.8 °F - 71.6 °F 78% 30.17 in 10.0 mi ENE 4.6 mph - N/A   Partly Cloudy
10:35 PM 77.0 °F - 71.6 °F 83% 30.17 in 10.0 mi Calm Calm - N/A   Clear
10:55 PM 77.0 °F - 71.6 °F 83% 30.17 in 10.0 mi SE 4.6 mph - N/A   Clear
11:15 PM 77.0 °F - 71.6 °F 83% 30.17 in 10.0 mi SE 4.6 mph - N/A   Clear
11:35 PM 77.0 °F - 71.6 °F 83% 30.17 in 10.0 mi East 3.5 mph - N/A   Clear
11:55 PM 77.0 °F - 71.6 °F 83% 30.16 in 10.0 mi East 3.5 mph - N/A   Partly Cloudy